Skip Navigation Links weather.gov 
NOAA logo-Select to go to the NOAA homepage NDBC Title GraphicClick to go to NDBC home page   Select to go to the NWS homepage
Home About Us Contact Us
 
 
    
    Station List

 Data Access
    Mobile Access
    Classic Maps
         Recent
         DART®
    Obs Search
    Ship Obs Report
    BuoyCAMs
    TAO
    DODS
    OceanSITES
    HF Radar
    OSMC
    Dial-A-Buoy
    RSS Feeds Image indicating link to RSS feed access page
    Web Widget
    Email Access
    Web Data Guide
    Maintenance Schedule
    Station Status Report

 Program Info
    TAO
    DART®
    IOOS®

 Publications
    NDBC PEA
    NDBC FONSI
    NDBC DQC Handbook

 FAQ
 Visitor Information
 
USA.gov is the U.S. government's official web portal to all federal, state and local government web resources and services.

Station CPXC1 - Cal Poly Pier, CA Image indicating link to RSS feed of recent meteorological observations for station CPXC1

Owned and maintained by California Polytechnic State University
Coastal Marine Station
35.170 N 120.741 W (35°10'12" N 120°44'27" W)

Site elevation: sea level
Air temp height: 4 m above site elevation
Anemometer height: 4 m above site elevation
Barometer elevation: 4 m above mean sea level

Search And Rescue (SAR) Data

Meteorological Observations from Nearby Stations and Ships Image indicating link to RSS feed of recent meteorological observations near station CPXC1

Regional HF Radar Surface Current Observations

Station CPXC1
Large icon indicates selected station.
yellow diamond Stations with recent data
red diamond Stations with no data in last 8 hours
     (24 hours for tsunami stations)


Conditions at CPXC1 as of
(6:52 am PST)
1452 GMT on 12/17/2018:
     

Click on the graph icon in the table below to see a time series plot of the last five days of that observation.

5-day plot - Wind Direction Wind Direction (WDIR): N ( 10 deg true )
5-day plot - Wind Speed Wind Speed (WSPD): 1.0 kts
5-day plot - Wind Gust Wind Gust (GST): 1.9 kts
5-day plot - Atmospheric Pressure Atmospheric Pressure (PRES): 30.18 in
5-day plot - Air Temperature Air Temperature (ATMP): 55.6 °F
5-day plot - Dew Point Dew Point (DEWP): 54.0 °F
5-day plot - Wind Speed at 10 Meters Wind Speed at 10 meters (WSPD10M): 1.9 kts
5-day plot - Wind Speed at 10 Meters Wind Speed at 20 meters (WSPD20M): 1.9 kts
5-day plot - Wind Speed, Wind Gust and Atmospheric Pressure Combined plot of Wind Speed, Gust, and Air Pressure
Previous observations
5-day plot - Wind Direction 5-day plot - Wind Speed 5-day plot - Wind Gust 5-day plot - Wave Height 5-day plot - Dominant Wave Period 5-day plot - Average Period 5-day plot - Mean Wave Direction 5-day plot - Atmospheric Pressure 5-day plot - Pressure Tendency 5-day plot - Air Temperature 5-day plot - Water Temperature 5-day plot - Dew Point 5-day plot - Salinity 5-day plot - Visibility 5-day plot - Tide (above MLLW)
MM DD TIME
(PST)
WDIR WSPD
kts
GST
kts
WVHT
ft
DPD
sec
APD
sec
MWD PRES
in
PTDY
in
ATMP
°F
WTMP
°F
DEWP
°F
SAL
psu
VIS
nmi
TIDE
ft
1217 6:42 amENE 1.0 1.9----30.17- 55.6- 54.0---
1217 6:32 am NE 1.0 1.9----30.16- 55.8- 54.1---
1217 6:30 amENE 1.0 1.9----30.16- 55.8- 54.1---
1217 6:28 am E 1.9 1.9----30.16- 55.6- 54.0---
1217 6:26 am E 1.9 1.9----30.16- 55.8- 54.1---
1217 6:24 am E 1.9 4.1----30.16- 55.8- 54.0---
1217 6:22 amESE 2.9 4.1----30.15- 55.8- 54.0---
1217 6:20 amESE 2.9 4.1----30.15- 55.8- 54.0---
1217 6:18 amESE 2.9 4.1----30.15- 55.8- 54.0---
1217 6:16 amESE 1.9 2.9----30.15- 55.8- 54.0---
1217 6:14 amESE 2.9 4.1----30.15- 55.6- 53.8---
1217 6:12 amESE 4.1 5.1----30.15- 55.8- 54.0---
1217 6:10 amESE 2.9 4.1----30.15- 55.8- 54.0---
1217 6:08 amESE 1.9 2.9----30.15- 55.8- 54.0---
1217 6:06 am SE 1.0 1.9----30.15- 55.8- 54.0---
1217 6:04 am- 0.0 1.0----30.15- 55.9- 54.1---
1217 6:02 am- 0.0 1.0----30.15- 55.9- 54.1---
1217 6:00 am- 0.0 1.9----30.15- 55.8- 54.0---
1217 5:58 am- 0.0 1.0----30.15- 55.8- 54.0---
1217 5:56 am- 0.0 1.0----30.14- 55.8- 53.8---
1217 5:54 am- 0.0 1.0----30.15- 55.8- 53.8---
1217 5:52 am SE 1.9 2.9----30.15- 55.8- 53.8---
1217 5:50 amESE 1.9 4.1----30.15- 55.8- 53.8---
1217 5:48 am E 2.9 4.1----30.14+0.00 55.9- 54.0---
1217 5:46 am E 4.1 5.1----30.14- 55.9- 54.0---
1217 5:44 amESE 4.1 5.1----30.14- 55.9- 54.0---
1217 5:40 amESE 5.1 7.0----30.14- 55.9- 53.8---
1217 5:38 amESE 5.1 7.0----30.14- 56.1- 54.0---
1217 5:36 amESE 6.0 8.0----30.14- 55.9- 53.8---
1217 5:34 amESE 6.0 7.0----30.14- 56.1- 54.0---
1217 5:32 amESE 7.0 8.9----30.14- 56.1- 53.8---
1217 5:30 amESE 6.0 7.0----30.14- 56.1- 53.8---
1217 5:28 amESE 6.0 8.0----30.14- 56.1- 53.8---
1217 5:26 amESE 5.1 7.0----30.14- 56.1- 53.6---
1217 5:24 am SE 5.1 6.0----30.14- 56.3- 53.8---
1217 5:22 am SE 4.1 6.0----30.14- 56.3- 53.8---
1217 5:20 amESE 5.1 7.0----30.14- 56.3- 53.8---
1217 5:18 amESE 6.0 7.0----30.14- 56.3- 53.8---
1217 5:16 amESE 6.0 8.0----30.14- 56.3- 53.6---
1217 5:14 amESE 7.0 8.9----30.14- 56.3- 53.6---
1217 5:12 amESE 7.0 8.9----30.14- 56.3- 53.6---
1217 5:10 amESE 6.0 8.0----30.14- 56.5- 53.8---
1217 5:08 amESE 6.0 8.9----30.14- 56.3- 53.4---
1217 5:06 am SE 5.1 7.0----30.14- 56.5- 53.6---
1217 5:04 amESE 5.1 7.0----30.14- 56.5- 53.6---
1217 5:02 amESE 4.1 7.0----30.14- 56.5- 53.6---
1217 5:00 amESE 6.0 7.0----30.14- 56.5- 53.4---
1217 4:58 amESE 5.1 7.0----30.14- 56.5- 53.4---
1217 4:56 amESE 6.0 8.0----30.14- 56.5- 53.4---
1217 4:54 amESE 6.0 7.0----30.14- 56.5- 53.4---
1217 4:52 amESE 5.1 7.0----30.14- 56.7- 53.6---
1217 4:50 amESE 6.0 7.0----30.14- 56.5- 53.4---
1217 4:48 amESE 6.0 7.0----30.14- 56.5- 53.4---
1217 4:46 amESE 6.0 8.0----30.14- 56.5- 53.4---
1217 4:44 amESE 6.0 8.0----30.14- 56.5- 53.4---
1217 4:42 amESE 6.0 8.0----30.14- 56.7- 53.6---
1217 4:40 amESE 6.0 7.0----30.14- 56.5- 53.2---
1217 4:38 amESE 7.0 8.0----30.14- 56.5- 53.2---
1217 4:36 amESE 7.0 8.9----30.14- 56.5- 53.2---
1217 4:34 amESE 7.0 8.9----30.14- 56.5- 53.2---
1217 4:32 amESE 6.0 7.0----30.14- 56.7- 53.4---
1217 4:30 amESE 5.1 7.0----30.14- 56.5- 53.2---
1217 4:28 amESE 5.1 7.0----30.14- 56.7- 53.4---
1217 4:26 amESE 5.1 7.0----30.14- 56.7- 53.4---
1217 4:24 amESE 5.1 6.0----30.14- 56.7- 53.4---
1217 4:22 amESE 5.1 6.0----30.16- 56.8- 53.6---
1217 4:20 amESE 5.1 5.1----30.16- 56.8- 53.6---
1217 4:18 amESE 4.1 6.0----30.16- 56.8- 53.6---
1217 4:16 amESE 2.9 4.1----30.16- 57.0- 53.8---
1217 4:14 amESE 4.1 5.1----30.16- 56.8- 53.6---
1217 4:12 amESE 4.1 5.1----30.16- 56.8- 53.4---
1217 4:10 amESE 5.1 7.0----30.16- 56.8- 53.4---
1217 4:08 amESE 5.1 6.0----30.16- 56.8- 53.6---
1217 4:06 amESE 5.1 6.0----30.16- 56.8- 53.6---
1217 4:04 amESE 5.1 7.0----30.16- 56.7- 53.4---
1217 4:02 amESE 5.1 7.0----30.16- 56.7- 53.4---
1217 4:00 amESE 6.0 7.0----30.16- 56.7- 53.4---
1217 3:58 amESE 6.0 7.0----30.16- 56.5- 53.4---
1217 3:56 amESE 6.0 7.0----30.16- 56.7- 53.6---
1217 3:54 amESE 6.0 7.0----30.16- 56.7- 53.6---
1217 3:52 amESE 6.0 7.0----30.16- 56.7- 53.8---
1217 3:50 amESE 6.0 7.0----30.16- 56.5- 53.6---
1217 3:48 am E 5.1 6.0----30.16- 56.5- 53.6---
1217 3:46 am E 6.0 8.0----30.16- 56.7- 53.8---
1217 3:44 am E 7.0 8.0----30.16- 56.5- 53.6---
1217 3:42 am E 7.0 8.9----30.16- 56.3- 53.4---
1217 3:40 amESE 6.0 7.0----30.16- 56.5- 53.8---
1217 3:38 amESE 7.0 8.9----30.16- 56.3- 53.6---
1217 3:36 amESE 8.0 8.9----30.16- 56.3- 53.6---
1217 3:34 amESE 7.0 8.9----30.16- 56.1- 53.4---
1217 3:32 amESE 8.0 9.9----30.16- 56.3- 53.4---
1217 3:30 am E 8.0 9.9----30.16- 56.3- 53.4---
1217 3:28 am E 8.9 9.9----30.16- 56.3- 53.4---
1217 3:26 am E 8.9 11.1----30.16- 56.3- 53.4---
1217 3:24 am E 8.9 9.9----30.16- 56.3- 53.4---
1217 3:22 amESE 9.9 11.1----30.16- 56.3- 53.4---
1217 3:20 amESE 9.9 11.1----30.16- 56.3- 53.4---
1217 3:18 amESE 8.9 9.9----30.16- 56.5- 53.6---
1217 3:16 amESE 8.0 8.9----30.16- 56.3- 53.4---
1217 3:14 amESE 7.0 8.9----30.15- 56.3- 53.4---
1217 3:12 amESE 6.0 8.0----30.15- 56.5- 53.6---
1217 3:10 amESE 7.0 8.0----30.15- 56.5- 53.6---
1217 3:08 amESE 6.0 7.0----30.16- 56.5- 53.6---
1217 3:06 amESE 6.0 7.0----30.16- 56.5- 53.6---
1217 3:04 amESE 7.0 8.0----30.14- 56.5- 53.6---
1217 3:02 amESE 6.0 8.0----30.14- 56.5- 53.6---
1217 3:00 amESE 6.0 7.0----30.14- 56.5- 53.6---
1217 2:58 amESE 6.0 7.0----30.14- 56.5- 53.6---
1217 2:56 amESE 7.0 8.9----30.14- 56.5- 53.8---
1217 2:54 am SE 7.0 8.9----30.14- 56.5- 53.8---
1217 2:52 am SE 7.0 8.0----30.14- 56.5- 54.0---
1217 2:50 am SE 7.0 8.0----30.14- 56.5- 54.0---
1217 2:48 am SE 7.0 8.0----30.14-0.03 56.5- 54.0---
1217 2:46 amSSE 7.0 8.9----30.14- 56.5- 54.1---
1217 2:44 amSSE 5.1 8.9----30.14- 56.5- 54.1---
1217 2:42 amSSE 2.9 4.1----30.15- 56.5- 54.1---
1217 2:40 amSSE 4.1 5.1----30.15- 56.5- 54.3---
1217 2:38 amSSE 2.9 4.1----30.16- 56.5- 54.3---
1217 2:36 amSSE 2.9 4.1----30.16- 56.5- 54.3---
1217 2:34 amSSE 2.9 4.1----30.16- 56.5- 54.3---
1217 2:32 am S 1.9 4.1----30.16- 56.3- 54.1---
1217 2:30 am S 1.9 4.1----30.16- 56.3- 54.3---
1217 2:28 amSSE 2.9 4.1----30.16- 56.3- 54.3---
1217 2:26 amSSE 2.9 4.1----30.16- 56.1- 54.1---
1217 2:24 amSSE 4.1 5.1----30.16- 56.1- 54.1---
1217 2:22 am S 2.9 5.1----30.16- 56.1- 54.1---
1217 2:20 am S 2.9 4.1----30.16- 55.9- 54.0---
1217 2:18 amSSE 2.9 4.1----30.16- 55.9- 54.0---
1217 2:16 amSSE 2.9 4.1----30.16- 55.9- 54.0---
1217 2:14 am S 2.9 5.1----30.16- 55.9- 54.0---
1217 2:12 am S 1.9 5.1----30.16- 55.9- 54.0---
1217 2:10 am SW 2.9 4.1----30.16- 56.1- 54.1---
1217 2:08 amWSW 1.9 2.9----30.16- 55.9- 54.0---
1217 2:06 am- 0.0 1.0----30.16- 55.8- 53.8---
1217 2:04 am W 1.0 4.1----30.15- 55.8- 53.8---
1217 2:02 am W 5.1 6.0----30.15- 55.8- 53.8---
1217 2:00 am W 4.1 5.1----30.16- 55.8- 53.8---
1217 1:58 am NW 1.0 2.9----30.15- 55.8- 53.8---
1217 1:56 am- 0.0 1.9----30.15- 55.6- 53.6---
1217 1:54 am N 1.9 4.1----30.14- 55.6- 53.6---
1217 1:52 am N 1.9 4.1----30.14- 55.8- 53.8---
1217 1:50 am N 2.9 4.1----30.14- 55.8- 53.8---
1217 1:48 amNNE 4.1 5.1----30.14-0.02 55.8- 53.8---
1217 1:46 am N 2.9 4.1----30.14- 55.8- 53.8---
1217 1:44 am NW 2.9 4.1----30.14- 55.8- 53.8---
1217 1:42 am NW 2.9 5.1----30.14- 55.8- 53.8---
1217 1:40 am N 4.1 7.0----30.14- 55.8- 53.8---
1217 1:38 amNNE 5.1 5.1----30.14- 55.8- 53.8---
1217 1:36 am NE 5.1 5.1----30.14- 55.8- 53.8---
1217 1:34 amNNE 1.9 5.1----30.14- 55.8- 53.8---
1217 1:32 am- 0.0 1.0----30.14- 55.8- 53.8---
1217 1:30 am- 0.0 1.9----30.14- 55.8- 53.8---
1217 1:28 am N 1.0 1.9----30.14- 55.8- 53.8---
1217 1:26 amNNE 2.9 4.1----30.14- 55.8- 53.8---
1217 1:24 amENE 2.9 4.1----30.14- 55.8- 53.8---
1217 1:22 am E 2.9 4.1----30.14- 55.8- 53.8---
1217 1:20 amENE 2.9 4.1----30.14- 55.8- 53.8---
1217 1:18 am NE 1.9 4.1----30.14- 55.8- 53.8---
1217 1:16 am NE 2.9 4.1----30.14- 55.8- 53.8---
1217 1:14 am NE 4.1 5.1----30.14- 55.8- 53.8---
1217 1:12 am NE 2.9 5.1----30.14- 55.8- 53.8---
1217 1:10 am NE 4.1 5.1----30.14- 55.9- 54.0---
1217 1:08 amENE 5.1 8.0----30.14- 55.8- 53.8---
1217 1:06 amENE 5.1 8.0----30.14- 55.8- 53.8---
1217 1:04 amENE 4.1 8.0----30.14- 55.9- 54.1---
1217 1:02 amENE 5.1 6.0----30.14- 55.8- 54.0---
1217 1:00 am E 5.1 7.0----30.14- 55.8- 54.0---
121712:58 amENE 7.0 9.9----30.14- 55.6- 53.8---
121712:56 amENE 8.0 9.9----30.13- 55.6- 53.8---
121712:54 amENE 8.0 12.0----30.12- 55.6- 53.8---
121712:52 amENE 5.1 7.0----30.14- 55.8- 54.0---
121712:50 amENE 6.0 8.0----30.14- 55.6- 53.8---
121712:48 amENE 6.0 8.9----30.14-0.03 55.6- 53.8---
121712:46 amENE 6.0 8.9----30.14- 55.6- 53.8---
121712:44 am NE 8.0 11.1----30.14- 55.6- 53.8---
121712:42 am NE 7.0 8.9----30.14- 55.6- 53.8---
121712:40 am E 8.0 11.1----30.14- 55.8- 54.0---
121712:38 am E 8.9 11.1----30.14- 55.8- 54.0---
121712:36 am E 9.9 12.0----30.14- 55.8- 54.0---
121712:34 am E 9.9 13.0----30.14- 55.8- 54.0---
121712:32 am E 11.1 14.0----30.14- 55.6- 53.8---
121712:30 am E 12.0 14.0----30.14- 55.6- 53.6---
121712:28 am E 8.9 12.0----30.14- 55.4- 53.4---
121712:26 am E 7.0 8.9----30.16- 55.6- 53.6---
121712:24 am E 6.0 8.0----30.17- 55.4- 53.4---
121712:22 am E 5.1 6.0----30.18- 55.6- 53.6---
121712:20 am E 4.1 5.1----30.18- 55.6- 53.6---
121712:18 am E 2.9 4.1----30.18- 55.6- 53.6---
121712:16 am E 2.9 4.1----30.19- 55.6- 53.6---
121712:14 am E 2.9 2.9----30.19- 55.6- 53.4---
121712:12 am E 1.9 2.9----30.19- 55.6- 53.4---
121712:10 am E 1.9 2.9----30.19- 55.8- 53.6---
121712:08 am E 2.9 4.1----30.19- 55.8- 53.6---
121712:06 amESE 2.9 4.1----30.19- 55.8- 53.6---
121712:04 amESE 1.9 2.9----30.19- 55.8- 53.6---
121712:02 amNNE 1.0 1.9----30.19- 55.6- 53.4---
121712:00 am- 0.0 1.0----30.19- 55.6- 53.4---
121611:58 pm- 0.0 0.0----30.19- 55.4- 53.2---
121611:56 pm- 0.0 1.0----30.19- 55.6- 53.4---
121611:54 pm- 0.0 1.0----30.18- 55.6- 53.4---
121611:52 pm- 0.0 0.0----30.18- 55.4- 53.2---
121611:50 pm- 0.0 0.0----30.18- 55.6- 53.2---
121611:48 pm- 0.0 1.0----30.18+0.04 55.6- 53.2---
121611:46 pm- 0.0 1.0----30.18- 55.6- 53.2---
121611:44 pm- 0.0 1.0----30.18- 55.6- 53.2---
121611:42 pm- 0.0 1.0----30.18- 55.8- 53.4---
121611:40 pm- 0.0 1.0----30.18- 55.8- 53.4---
121611:38 pm- 0.0 1.0----30.18- 55.8- 53.4---
121611:36 pm- 0.0 1.0----30.18- 55.8- 53.4---
121611:34 pm- 0.0 1.0----30.18- 55.8- 53.2---
121611:32 pm N 1.9 4.1----30.18- 55.8- 53.2---
121611:30 pm N 4.1 6.0----30.17- 55.8- 53.2---
121611:28 pmNNW 5.1 6.0----30.18- 55.9- 53.4---
121611:26 pmNNW 4.1 5.1----30.17- 55.9- 53.4---
121611:24 pmNNW 2.9 4.1----30.17- 55.9- 53.2---
121611:22 pmNNW 1.9 4.1----30.17- 55.9- 53.2---
121611:20 pm NW 1.0 1.9----30.17- 56.1- 53.4---
121611:18 pmWNW 1.0 1.9----30.16- 56.1- 53.2---
121611:16 pm W 1.9 2.9----30.17- 56.1- 53.2---
121611:14 pmWNW 1.9 1.9----30.17- 56.1- 53.2---
121611:12 pm- 0.0 1.0----30.17- 56.1- 53.2---
121611:10 pm- 0.0 1.0----30.16- 56.3- 53.2---
121611:08 pmNNE 1.0 1.9----30.16- 56.3- 53.2---
121611:06 pm- 0.0 1.9----30.16- 56.3- 53.2---
121611:04 pm- 0.0 1.0----30.16- 56.5- 53.4---
121611:02 pm- 0.0 1.0----30.16- 56.5- 53.4---
121611:00 pm- 0.0 1.0----30.16- 56.5- 53.2---
121610:58 pm- 0.0 1.0----30.16- 56.7- 53.4---
121610:56 pm- 0.0 1.9----30.16- 56.7- 53.4---
121610:54 pm- 0.0 1.9----30.16- 56.7- 53.4---
121610:52 pm- 0.0 1.0----30.16- 56.7- 53.4---
121610:50 pm NE 1.0 1.9----30.16- 56.7- 53.2---
121610:48 pm- 0.0 1.0----30.16+0.01 56.7- 53.2---
121610:46 pm- 0.0 1.9----30.16- 56.7- 53.2---
121610:44 pm- 0.0 1.9----30.16- 56.7- 53.2---
121610:42 pm E 1.0 1.9----30.16- 56.7- 53.2---
121610:40 pm E 1.0 1.9----30.16- 56.7- 53.2---
121610:38 pm E 1.0 1.9----30.16- 56.8- 53.4---
121610:36 pm E 1.9 1.9----30.16- 56.8- 53.4---
121610:34 pmESE 1.9 2.9----30.16- 56.8- 53.2---
121610:32 pmESE 2.9 4.1----30.16- 56.8- 53.2---
121610:30 pmESE 2.9 4.1----30.16- 57.0- 53.4---
121610:28 pm SE 2.9 4.1----30.16- 57.2- 53.6---
121610:26 pm SE 2.9 4.1----30.16- 57.2- 53.6---
121610:24 pm SE 2.9 4.1----30.16- 57.2- 53.6---
121610:22 pm SE 2.9 4.1----30.16- 57.2- 53.6---
121610:20 pm SE 2.9 2.9----30.16- 57.2- 53.8---
121610:18 pmSSE 2.9 2.9----30.16- 57.2- 53.8---
121610:16 pmSSE 1.9 2.9----30.16- 57.2- 53.4---
121610:14 pmSSE 1.9 2.9----30.16- 57.2- 53.6---
121610:12 pmSSE 1.9 2.9----30.16- 57.2- 53.6---
121610:10 pm SE 1.9 1.9----30.16- 57.4- 53.8---
121610:08 pm SE 1.9 1.9----30.16- 57.2- 53.4---
121610:06 pm SE 1.9 1.9----30.16- 57.2- 53.4---
121610:04 pm SE 1.9 1.9----30.16- 57.4- 53.6---
121610:02 pm SE 1.9 1.9----30.16- 57.6- 53.6---
121610:00 pmESE 1.9 1.9----30.16- 57.6- 53.6---
1216 9:58 pmESE 1.9 1.9----30.16- 57.6- 53.6---
1216 9:56 pmESE 1.9 2.9----30.16- 57.7- 53.6---
1216 9:54 pmESE 1.9 2.9----30.16- 57.7- 53.4---
1216 9:52 pm E 1.0 1.9----30.16- 57.7- 53.4---
1216 9:50 pm- 0.0 1.9----30.16- 57.9- 53.6---
1216 9:48 pm E 1.0 1.9----30.16+0.03 57.9- 53.6---
1216 9:46 pmESE 1.0 1.9----30.16- 57.7- 53.2---
1216 9:44 pmESE 1.0 1.9----30.16- 57.7- 53.2---
1216 9:42 pm SE 1.9 2.9----30.17- 57.7- 53.2---
1216 9:40 pmESE 1.9 4.1----30.17- 57.7- 53.2---
1216 9:38 pm E 1.9 2.9----30.17- 57.6- 53.1---
1216 9:36 pm- 0.0 1.0----30.17- 57.6- 53.1---
1216 9:34 pm- 0.0 1.0----30.17- 57.6- 52.9---
1216 9:32 pm- 0.0 1.0----30.17- 57.6- 52.9---
1216 9:30 pm- 0.0 1.0----30.17- 57.6- 52.9---
1216 9:28 pm- 0.0 1.0----30.17- 57.4- 52.5---
1216 9:26 pm- 0.0 1.0----30.16- 57.4- 52.5---
1216 9:24 pm N 1.0 1.9----30.16- 57.6- 52.7---
1216 9:22 pm N 1.9 1.9----30.16- 57.6- 52.5---
1216 9:20 pm N 1.0 1.9----30.16- 57.6- 52.5---
1216 9:18 pm N 1.0 1.9----30.16- 57.6- 52.5---
1216 9:16 pm N 1.9 1.9----30.16- 57.7- 52.7---
1216 9:14 pm N 1.9 2.9----30.16- 57.7- 52.7---
1216 9:12 pm N 1.9 2.9----30.16- 57.9- 52.9---
1216 9:10 pmNNE 1.9 2.9----30.16- 58.1- 53.1---
1216 9:08 pmENE 2.9 4.1----30.15- 58.1- 53.1---
1216 9:06 pmENE 1.9 2.9----30.15- 58.1- 53.1---
1216 9:04 pmENE 1.9 2.9----30.15- 58.1- 53.2---
1216 9:02 pm N 1.0 1.9----30.15- 57.9- 53.1---
1216 9:00 pm N 1.0 1.9----30.15- 57.9- 53.1---
1216 8:58 pmNNE 1.9 1.9----30.15- 57.9- 53.1---
1216 8:56 pm NE 1.9 2.9----30.14- 57.9- 53.1---
1216 8:54 pm NE 1.9 2.9----30.14- 58.1- 53.4---
1216 8:52 pmENE 1.9 2.9----30.14- 58.1- 53.4---
1216 8:50 pm E 4.1 5.1----30.14- 58.1- 53.4---
1216 8:48 pm E 5.1 5.1----30.14+0.00 58.1- 53.2---
1216 8:46 pm E 4.1 6.0----30.14- 58.3- 53.2---
1216 8:44 pm E 4.1 6.0----30.14- 58.5- 53.2---
1216 8:42 pm E 6.0 7.0----30.14- 57.9- 52.7---
1216 8:40 pmESE 4.1 6.0----30.14- 58.3- 53.6---
1216 8:38 pm E 5.1 5.1----30.15- 58.3- 53.4---
1216 8:36 pm E 4.1 5.1----30.15- 58.1- 53.2---
1216 8:34 pm E 4.1 4.1----30.15- 58.3- 53.4---
1216 8:32 pm E 4.1 5.1----30.15- 58.3- 53.2---
1216 8:30 pm E 5.1 5.1----30.15- 58.1- 53.1---
1216 8:28 pm E 5.1 5.1----30.15- 58.1- 53.2---
1216 8:26 pmESE 4.1 5.1----30.16- 58.3- 53.4---
1216 8:24 pmESE 4.1 5.1----30.16- 58.3- 53.4---
1216 8:22 pmESE 2.9 4.1----30.16- 58.3- 53.4---
1216 8:20 pmESE 2.9 2.9----30.16- 58.3- 53.4---
1216 8:18 pmESE 1.9 2.9----30.16- 58.3- 53.2---
1216 8:16 pmESE 1.9 2.9----30.16- 58.3- 53.2---
1216 8:14 pmESE 1.9 2.9----30.16- 58.3- 53.2---
1216 8:12 pmESE 1.9 1.9----30.16- 58.3- 53.2---
1216 8:10 pm E 2.9 4.1----30.16- 58.1- 53.1---
1216 8:08 pm E 1.9 2.9----30.16- 58.1- 53.2---
1216 8:06 pm E 1.9 1.9----30.16- 58.5- 53.8---
1216 8:04 pm E 1.9 1.9----30.16- 58.3- 53.4---
1216 8:02 pm E 1.9 1.9----30.16- 58.3- 53.4---
1216 8:00 pmESE 2.9 2.9----30.15- 58.3- 53.4---
1216 7:58 pmESE 2.9 4.1----30.15- 58.3- 53.4---
1216 7:56 pmESE 4.1 4.1----30.15- 58.3- 53.4---
1216 7:54 pmESE 2.9 4.1----30.15- 58.3- 53.2---
1216 7:52 pm E 2.9 4.1----30.15- 58.3- 53.2---
1216 7:50 pm E 2.9 2.9----30.15- 58.3- 53.4---
1216 7:48 pm E 2.9 2.9----30.15+0.00 58.3- 53.2---
1216 7:46 pm E 2.9 2.9----30.14- 58.3- 53.2---
1216 7:44 pm E 2.9 2.9----30.14- 58.5- 53.4---
1216 7:42 pmESE 1.9 1.9----30.14- 58.6- 53.6---
1216 7:40 pm SE 1.9 2.9----30.14- 58.6- 53.4---
1216 7:38 pm S 2.9 4.1----30.14- 58.6- 53.2---
1216 7:36 pm S 1.9 2.9----30.14- 58.6- 53.2---
1216 7:34 pm S 1.9 4.1----30.15- 58.6- 53.2---
1216 7:32 pm S 1.9 4.1----30.15- 58.6- 53.2---
1216 7:30 pmSSE 2.9 6.0----30.14- 58.6- 53.2---
1216 7:28 pm S 4.1 5.1----30.14- 58.6- 53.4---
1216 7:26 pmSSW 4.1 5.1----30.15- 58.6- 53.4---
1216 7:24 pmSSW 4.1 5.1----30.15- 58.6- 53.4---
1216 7:22 pm S 1.9 4.1----30.14- 58.6- 53.4---
1216 7:20 pm SE 4.1 5.1----30.14- 58.5- 53.2---
1216 7:18 pmESE 5.1 6.0----30.14- 58.5- 53.2---
1216 7:16 pmESE 6.0 7.0----30.14- 58.5- 53.2---
1216 7:14 pmESE 6.0 7.0----30.14- 58.3- 53.1---
1216 7:12 pmESE 7.0 8.9----30.14- 58.1- 52.9---
1216 7:10 pmESE 7.0 8.9----30.14- 58.1- 53.1---
1216 7:08 pmESE 7.0 8.9----30.14- 58.3- 53.4---
1216 7:06 pmESE 6.0 8.0----30.14- 58.1- 53.2---
1216 7:04 pmESE 6.0 7.0----30.14- 58.3- 53.6---
1216 7:02 pmESE 6.0 7.0----30.14- 58.3- 53.6---
1216 7:00 pmESE 5.1 6.0----30.14- 58.5- 53.8---
1216 6:58 pmESE 6.0 7.0----30.14- 58.5- 53.8---
1216 6:56 pmESE 6.0 7.0----30.14- 58.5- 53.6---
1216 6:54 pm SE 7.0 8.9----30.14- 58.5- 53.4---
1216 6:52 pm SE 8.0 8.0----30.14- 58.5- 53.4---
1216 6:50 pm SE 7.0 8.9----30.14- 58.6- 53.4---
1216 6:48 pmESE 8.0 8.9----30.14- 58.6- 53.4---
1216 6:46 pmESE 7.0 8.0----30.14- 58.6- 53.2---
1216 6:44 pm SE 6.0 8.0----30.14- 58.6- 53.2---
1216 6:42 pmESE 5.1 6.0----30.14- 58.6- 53.2---
1216 6:40 pmESE 6.0 7.0----30.14- 58.6- 53.4---
1216 6:38 pmESE 6.0 8.9----30.14- 58.6- 53.4---
1216 6:36 pmESE 4.1 5.1----30.14- 58.6- 53.4---
1216 6:34 pmESE 5.1 6.0----30.14- 58.6- 53.2---
1216 6:32 pm E 6.0 7.0----30.13- 58.6- 53.2---
1216 6:30 pmESE 7.0 8.0----30.13- 58.5- 53.1---
1216 6:28 pmESE 5.1 6.0----30.13- 58.6- 53.4---
1216 6:26 pmESE 6.0 7.0----30.13- 58.3- 52.9---
1216 6:24 pmESE 6.0 7.0----30.13- 58.5- 53.4---
1216 6:22 pmESE 6.0 7.0----30.13- 58.5- 53.2---
1216 6:20 pmESE 5.1 7.0----30.13- 58.5- 53.2---
1216 6:18 pmESE 5.1 7.0----30.13- 58.5- 53.2---
1216 6:16 pmESE 5.1 6.0----30.13- 58.6- 53.4---
1216 6:14 pmESE 5.1 5.1----30.13- 58.6- 53.2---
1216 6:12 pmESE 4.1 5.1----30.13- 58.6- 53.1---
1216 6:10 pmESE 4.1 4.1----30.14- 58.5- 52.7---
1216 6:08 pmESE 4.1 4.1----30.14- 58.5- 52.7---
1216 6:06 pm E 4.1 4.1----30.14- 58.5- 52.7---
1216 6:04 pm E 4.1 4.1----30.14- 58.5- 52.7---
1216 6:02 pm E 4.1 4.1----30.14- 58.5- 52.7---
1216 6:00 pm E 4.1 5.1----30.14- 58.5- 52.5---
1216 5:58 pm E 4.1 5.1----30.14- 58.3- 52.3---
1216 5:56 pm E 4.1 5.1----30.14- 58.5- 52.5---
1216 5:54 pm E 4.1 5.1----30.14- 58.5- 52.7---
1216 5:52 pm E 4.1 5.1----30.14- 58.5- 52.5---
1216 5:50 pmESE 4.1 5.1----30.14- 58.5- 52.5---
1216 5:48 pmESE 4.1 4.1----30.14- 58.5- 52.5---
1216 5:46 pmESE 4.1 4.1----30.14- 58.5- 52.7---
1216 5:44 pmESE 2.9 4.1----30.14- 58.6- 52.7---
1216 5:42 pmESE 2.9 2.9----30.14- 58.6- 52.5---
1216 5:40 pmESE 1.9 1.9----30.14- 58.6- 52.3---
1216 5:38 pmESE 1.9 2.9----30.14- 58.6- 52.3---
1216 5:36 pmESE 1.9 2.9----30.14- 58.6- 52.5---
1216 5:34 pmESE 1.9 2.9----30.14- 58.8- 52.5---
1216 5:32 pmESE 1.9 2.9----30.14- 58.6- 52.3---
1216 5:30 pmESE 2.9 4.1----30.14- 58.6- 52.3---
1216 5:28 pmESE 2.9 4.1----30.14- 58.6- 52.3---
1216 5:26 pmESE 2.9 4.1----30.14- 58.6- 52.3---
1216 5:24 pmESE 2.9 4.1----30.14- 58.6- 52.3---
1216 5:22 pmESE 2.9 4.1----30.14- 58.6- 52.3---
1216 5:20 pm E 1.9 2.9----30.14- 58.6- 52.3---
1216 5:18 pmWNW 1.9 1.9----30.14- 58.6- 52.3---
1216 5:16 pmWNW 1.0 1.9----30.14- 58.6- 52.3---
1216 5:14 pm- 0.0 1.0----30.14- 58.6- 52.2---
1216 5:12 pm- 0.0 1.0----30.14- 58.6- 52.2---
1216 5:10 pm- 0.0 1.0----30.14- 58.6- 52.0---
1216 5:08 pm- 0.0 0.0----30.14- 58.6- 51.8---
1216 5:06 pm- 0.0 0.0----30.14- 58.6- 51.8---
1216 5:04 pm- 0.0 0.0----30.15- 58.6- 51.8---
1216 5:02 pm- 0.0 1.0----30.15- 58.8- 52.0---
1216 5:00 pm- 0.0 1.0----30.15- 58.8- 52.2---
1216 4:58 pmWNW 1.0 1.9----30.15- 58.8- 52.2---
1216 4:56 pm W 1.0 1.9----30.15- 59.0- 52.3---
1216 4:54 pm W 1.0 1.9----30.15- 59.0- 52.3---
1216 4:52 pm W 1.9 1.9----30.16- 59.0- 52.3---
1216 4:50 pm W 1.9 1.9----30.16- 59.0- 52.3---
1216 4:48 pm W 1.9 1.9----30.16+0.03 59.0- 52.3---
1216 4:46 pmWSW 1.9 2.9----30.16- 59.0- 52.3---
1216 4:44 pm W 1.9 4.1----30.16- 59.0- 52.3---
1216 4:42 pm W 1.0 1.9----30.15- 59.0- 52.3---
1216 4:40 pm- 0.0 1.9----30.15- 59.0- 52.3---
1216 4:38 pm W 1.9 1.9----30.15- 59.0- 52.3---
1216 4:36 pmWSW 1.9 4.1----30.16- 59.0- 52.3---
1216 4:34 pmWSW 2.9 4.1----30.16- 59.0- 52.3---
1216 4:32 pmWSW 1.9 4.1----30.16- 59.0- 52.2---
1216 4:30 pm W 1.9 2.9----30.16- 59.0- 52.2---
1216 4:28 pm W 1.9 2.9----30.16- 59.0- 52.2---
1216 4:26 pmWSW 2.9 5.1----30.16- 59.0- 52.2---
1216 4:24 pmWSW 4.1 5.1----30.16- 59.0- 52.2---
1216 4:22 pm W 4.1 5.1----30.16- 59.0- 52.2---
1216 4:20 pm W 5.1 7.0----30.16- 59.0- 52.2---
1216 4:18 pm W 5.1 6.0----30.16- 59.0- 52.0---
1216 4:16 pm W 5.1 7.0----30.16- 59.0- 52.0---
1216 4:14 pm W 6.0 8.9----30.16- 59.0- 52.0---
1216 4:12 pm W 6.0 7.0----30.16- 59.0- 52.0---
1216 4:10 pm W 8.0 9.9----30.16- 59.0- 52.0---
1216 4:08 pm W 6.0 8.9----30.16- 59.0- 52.0---
1216 4:06 pm W 5.1 5.1----30.16- 59.0- 52.0---
1216 4:04 pm W 5.1 7.0----30.16- 59.0- 52.0---
1216 3:58 pm W 4.1 5.1----30.16- 59.0- 52.0---
1216 3:56 pm W 6.0 8.9----30.16- 59.0- 52.0---
1216 3:54 pm W 5.1 8.0----30.15- 59.0- 52.0---
1216 3:52 pm W 5.1 7.0----30.15- 59.2- 52.0---
1216 3:50 pm W 6.0 8.9----30.15- 59.0- 51.8---
1216 3:48 pm W 6.0 7.0----30.15+0.02 59.0- 52.0---
1216 3:46 pm W 6.0 8.0----30.15- 59.0- 52.0---
1216 3:44 pm W 6.0 7.0----30.14- 59.0- 52.0---
1216 3:42 pm W 5.1 7.0----30.14- 59.0- 52.2---
1216 3:40 pm W 6.0 8.0----30.14- 59.0- 52.0---
1216 3:38 pm W 6.0 8.9----30.14- 59.0- 52.0---
1216 3:36 pm W 5.1 6.0----30.14- 59.0- 51.8---
1216 3:34 pm W 4.1 5.1----30.14- 59.0- 52.0---
1216 3:32 pmWSW 4.1 6.0----30.14- 59.0- 51.8---
1216 3:30 pmWSW 4.1 7.0----30.14- 59.0- 51.8---
1216 3:28 pmWSW 5.1 6.0----30.14- 59.0- 52.0---
1216 3:26 pmWSW 4.1 7.0----30.14- 58.8- 51.6---
1216 3:24 pmWSW 8.0 9.9----30.14- 58.8- 51.8---
1216 3:22 pmWSW 8.0 9.9----30.14- 59.0- 52.0---
1216 3:20 pmWSW 8.0 9.9----30.14- 59.0- 52.0---
1216 3:18 pmWSW 8.0 9.9----30.14- 59.0- 51.8---
1216 3:16 pm SW 8.0 8.9----30.14- 59.0- 51.8---
1216 3:14 pm SW 6.0 7.0----30.14- 59.0- 51.6---
1216 3:12 pmWSW 7.0 8.0----30.14- 59.2- 51.6---
1216 3:10 pmWSW 7.0 9.9----30.14- 59.4- 51.8---
1216 3:08 pmWSW 5.1 7.0----30.14- 59.4- 51.8---
1216 3:06 pmWSW 6.0 7.0----30.14- 59.2- 51.6---
1216 3:04 pmWSW 6.0 8.0----30.14- 59.4- 51.8---
1216 3:02 pm SW 7.0 8.9----30.14- 59.4- 51.4---
1216 3:00 pmWSW 7.0 8.9----30.14- 59.4- 51.4---
1216 2:58 pm W 6.0 8.9----30.14- 59.5- 51.6---
1216 2:56 pm W 5.1 8.0----30.14- 59.5- 51.8---
1216 2:54 pm W 6.0 7.0----30.14- 59.5- 51.6---
1216 2:52 pm W 5.1 8.9----30.14- 59.5- 51.6---
1216 2:50 pmWSW 5.1 7.0----30.14- 59.5- 51.6---
1216 2:48 pmWSW 4.1 5.1----30.14-0.02 59.5- 51.6---
1216 2:46 pmWSW 5.1 7.0----30.13- 59.5- 51.6---
1216 2:44 pmWSW 6.0 8.0----30.13- 59.4- 51.4---
1216 2:42 pm W 5.1 7.0----30.13- 59.5- 51.8---
1216 2:40 pm W 6.0 7.0----30.13- 59.5- 51.6---
1216 2:38 pm W 8.0 8.9----30.13- 59.4- 51.6---
1216 2:36 pmWSW 8.0 9.9----30.13- 59.4- 51.8---
1216 2:34 pmWSW 7.0 9.9----30.13- 59.5- 51.8---
1216 2:32 pmWSW 7.0 8.0----30.12- 59.4- 51.8---
1216 2:30 pmWSW 7.0 8.9----30.12- 59.2- 51.6---
1216 2:28 pmWSW 7.0 8.0----30.12- 59.2- 51.6---
1216 2:26 pmWSW 8.0 8.9----30.12- 59.2- 51.6---
1216 2:24 pmWSW 7.0 8.0----30.12- 59.2- 51.8---
1216 2:22 pm SW 7.0 8.9----30.12- 59.2- 51.8---
1216 2:20 pm SW 7.0 7.0----30.12- 59.0- 51.8---
1216 2:18 pm SW 6.0 7.0----30.12- 59.0- 52.2---
1216 2:16 pm SW 5.1 6.0----30.12- 59.0- 52.2---
1216 2:14 pm SW 5.1 7.0----30.12- 58.8- 51.8---
1216 2:12 pmSSW 5.1 5.1----30.12- 58.5- 51.8---
1216 2:10 pmSSW 5.1 5.1----30.12- 58.6- 51.8---
1216 2:08 pmSSW 5.1 5.1----30.12- 58.8- 52.0---
1216 2:06 pmSSW 4.1 5.1----30.12- 58.6- 51.8---
1216 2:04 pmSSW 4.1 5.1----30.12- 58.8- 52.0---
1216 2:02 pmSSW 4.1 5.1----30.12- 59.0- 52.7---
1216 2:00 pm S 2.9 5.1----30.12- 59.2- 52.9---
1216 1:58 pm S 2.9 4.1----30.12- 59.0- 52.7---
1216 1:56 pm S 4.1 5.1----30.12- 58.8- 52.5---
1216 1:54 pmSSW 2.9 4.1----30.12- 59.0- 52.9---
1216 1:52 pmSSW 2.9 4.1----30.12- 58.8- 52.7---
1216 1:50 pm SW 2.9 4.1----30.12- 58.5- 52.3---
1216 1:48 pm SW 4.1 5.1----30.12-0.06 58.3- 52.5---
1216 1:46 pm SW 4.1 5.1----30.12- 57.9- 52.3---
1216 1:44 pm SW 4.1 5.1----30.12- 57.6- 52.2---
1216 1:42 pm SW 5.1 7.0----30.12- 57.4- 52.2---
1216 1:40 pmSSW 5.1 7.0----30.12- 57.4- 52.0---
1216 1:38 pmSSW 6.0 7.0----30.12- 57.4- 52.0---
1216 1:36 pmSSW 6.0 7.0----30.12- 57.4- 52.0---
1216 1:34 pm SW 6.0 7.0----30.13- 57.6- 52.2---
1216 1:32 pm SW 7.0 8.9----30.13- 57.4- 52.2---
1216 1:30 pm SW 8.0 8.9----30.14- 57.2- 51.8---
1216 1:28 pm SW 7.0 8.9----30.14- 57.2- 51.8---
1216 1:26 pm SW 7.0 8.0----30.14- 57.2- 51.8---
1216 1:24 pm SW 7.0 8.9----30.14- 57.2- 51.8---
1216 1:22 pm SW 8.0 8.9----30.14- 57.2- 51.8---
1216 1:20 pm SW 8.0 8.9----30.14- 57.2- 51.6---
1216 1:18 pmSSW 8.0 8.9----30.14- 57.2- 51.4---
1216 1:16 pmSSW 7.0 8.9----30.14- 57.2- 51.4---
1216 1:14 pmSSW 7.0 8.0----30.14- 57.4- 51.4---
1216 1:12 pmSSW 6.0 7.0----30.14- 57.4- 51.4---
1216 1:10 pmSSW 6.0 7.0----30.14- 57.6- 51.4---
1216 1:08 pmSSW 5.1 6.0----30.14- 57.6- 51.3---
1216 1:06 pmSSW 4.1 5.1----30.14- 57.7- 51.4---
1216 1:04 pmSSW 2.9 4.1----30.14- 58.3- 52.3---
1216 1:02 pm S 2.9 4.1----30.13- 58.3- 52.3---
1216 1:00 pm S 2.9 5.1----30.13- 57.9- 51.8---
121612:58 pmSSE 2.9 5.1----30.13- 57.9- 51.8---
121612:56 pmSSE 4.1 4.1----30.12- 57.9- 51.6---
121612:54 pm S 4.1 5.1----30.13- 57.9- 51.6---
121612:52 pm S 2.9 4.1----30.13- 58.3- 52.3---
121612:50 pm S 1.9 5.1----30.13- 58.3- 52.5---
121612:48 pm S 2.9 5.1----30.13-0.02 57.9- 52.2---
121612:46 pm S 2.9 5.1----30.13- 57.9- 52.3---
121612:44 pm S 2.9 4.1----30.13- 57.7- 52.5---
121612:42 pm S 1.9 4.1----30.14- 57.6- 52.3---
121612:40 pm S 2.9 4.1----30.14- 57.2- 52.0---
121612:38 pmSSE 2.9 4.1----30.14- 57.2- 51.8---
121612:36 pmSSE 4.1 4.1----30.14- 57.0- 51.6---
121612:34 pm SE 4.1 5.1----30.14- 57.0- 51.8---
121612:32 pm SE 4.1 6.0----30.14- 57.0- 51.8---
121612:30 pm SE 5.1 5.1----30.14- 57.0- 51.8---
121612:28 pm SE 5.1 7.0----30.14- 56.8- 51.8---
121612:26 pm SE 6.0 7.0----30.14- 56.8- 51.8---
121612:24 pm SE 6.0 7.0----30.14- 56.8- 51.8---
121612:22 pmESE 6.0 7.0----30.14- 56.8- 51.8---
121612:20 pmESE 7.0 8.0----30.14- 56.8- 51.6---
121612:18 pmESE 7.0 8.9----30.14- 56.7- 51.3---
121612:16 pmESE 7.0 8.9----30.14- 56.5- 51.1---
121612:14 pmESE 7.0 8.0----30.14- 56.7- 51.3---
121612:12 pm SE 7.0 8.9----30.14- 56.7- 51.3---
121612:10 pm SE 7.0 8.9----30.14- 56.7- 51.4---
121612:08 pm SE 8.0 8.9----30.14- 56.7- 51.1---
121612:06 pmESE 8.0 9.9----30.15- 56.5- 50.5---
121612:04 pmESE 8.0 8.9----30.15- 56.8- 50.9---
121612:02 pm SE 7.0 8.9----30.15- 57.0- 51.3---
121612:00 pm SE 6.0 7.0----30.15- 57.6- 52.0---
121611:58 am SE 5.1 6.0----30.15- 57.9- 52.5---
121611:56 amSSE 2.9 5.1----30.15- 57.9- 52.3---
121611:52 am S 4.1 5.1----30.15- 57.7- 52.0---
121611:50 am S 5.1 7.0----30.15- 57.6- 51.8---
121611:48 am S 5.1 7.0----30.16+0.00 57.4- 51.6---
121611:46 am S 6.0 8.0----30.16- 57.4- 51.6---
121611:44 amSSW 7.0 8.9----30.16- 57.2- 51.1---
121611:42 amSSW 7.0 8.9----30.16- 57.2- 50.9---
121611:40 amSSW 8.0 11.1----30.16- 57.4- 51.1---
121611:38 amSSW 7.0 11.1----30.16- 57.6- 50.9---
121611:36 am SW 8.0 12.0----30.16- 57.7- 50.5---
121611:34 am SW 5.1 7.0----30.16- 58.6- 51.3---
121611:32 am W 8.9 11.1----30.16- 59.2- 51.8---
121611:30 am W 8.9 11.1----30.17- 59.2- 51.8---
121611:28 amWSW 8.9 13.0----30.17- 59.0- 52.0---
121611:26 amWSW 7.0 9.9----30.17- 58.6- 51.6---
121611:24 amWSW 8.9 13.0----30.17- 58.6- 51.4---
121611:22 am W 11.1 13.0----30.18- 58.8- 51.8---
121611:20 amWSW 9.9 13.0----30.18- 58.5- 51.6---
121611:18 amWSW 8.9 11.1----30.18- 58.5- 51.3---
121611:16 am W 9.9 13.0----30.18- 59.0- 51.6---
121611:14 am W 9.9 13.0----30.18- 59.0- 51.6---
121611:12 am W 8.9 12.0----30.18- 59.0- 51.8---
121611:10 am W 8.9 12.0----30.18- 59.0- 51.6---
121611:08 am W 8.0 9.9----30.18- 59.0- 51.8---
121611:06 am W 9.9 12.0----30.18- 59.0- 51.8---
121611:04 am W 9.9 11.1----30.18- 58.8- 51.6---
121611:02 am W 8.9 11.1----30.18- 59.0- 51.8---
121611:00 am W 9.9 12.0----30.18- 58.8- 51.6---
121610:58 am W 8.0 9.9----30.18- 58.6- 51.6---
121610:56 am W 8.0 9.9----30.19- 58.6- 51.6---
121610:54 am W 9.9 12.0----30.19- 58.6- 51.6---
121610:52 am W 11.1 15.0----30.19- 58.6- 51.6---
121610:50 am W 8.9 12.0----30.19- 58.6- 51.6---
121610:48 am W 9.9 14.0----30.19+0.06 58.6- 51.6---
121610:46 am W 8.9 11.1----30.19- 58.6- 51.8---
121610:44 amWNW 8.0 9.9----30.19- 58.5- 51.6---
121610:42 amWNW 7.0 8.9----30.18- 57.9- 51.1---
121610:40 amWNW 7.0 8.9----30.18- 57.7- 50.9---
121610:38 amWNW 8.9 12.0----30.18- 57.6- 50.5---
121610:36 am W 9.9 12.0----30.19- 57.6- 50.4---
121610:34 am W 13.0 17.1----30.19- 57.6- 50.4---
121610:32 am W 14.0 19.0----30.19- 57.6- 50.4---
121610:30 am W 13.0 18.1----30.19- 57.6- 50.4---
121610:28 am W 9.9 15.9----30.19- 57.4- 50.5---
121610:26 am W 7.0 9.9----30.19- 57.2- 50.5---
121610:24 amWNW 5.1 7.0----30.19- 57.0- 50.7---
121610:22 amWNW 1.9 5.1----30.19- 56.3- 49.6---
121610:20 am W 1.9 4.1----30.19- 55.6- 48.9---
121610:18 amWSW 2.9 5.1----30.19- 55.2- 48.7---
121610:16 amSSW 1.9 4.1----30.19- 54.7- 48.4---
121610:14 amWSW 1.9 4.1----30.19- 54.5- 48.2---
121610:12 amWSW 1.9 4.1----30.19- 54.1- 48.2---
121610:10 amWSW 2.9 4.1----30.19- 54.1- 48.2---
121610:08 am W 4.1 4.1----30.18- 54.1- 48.4---
121610:06 am W 4.1 5.1----30.18- 54.0- 48.0---
121610:04 am W 7.0 8.9----30.18- 54.0- 47.8---
121610:02 am W 6.0 7.0----30.18- 54.0- 47.5---
121610:00 am W 4.1 5.1----30.17- 54.3- 47.8---
1216 9:58 am W 4.1 5.1----30.17- 54.5- 48.0---
1216 9:56 am W 1.9 4.1----30.16- 54.5- 47.8---
1216 9:54 am- 0.0 1.0----30.16- 54.5- 48.2---
1216 9:52 am- 0.0 2.9----30.16- 54.1- 47.7---
1216 9:50 am E 4.1 6.0----30.15- 53.6- 47.3---
1216 9:48 am E 5.1 7.0----30.15+0.00 53.4- 47.5---
1216 9:46 am E 5.1 6.0----30.14- 53.6- 48.2---
1216 9:44 am E 4.1 5.1----30.14- 53.6- 48.4---
1216 9:42 am E 2.9 5.1----30.14- 53.6- 48.6---
1216 9:40 am E 4.1 5.1----30.14- 53.6- 48.6---
1216 9:38 am E 2.9 5.1----30.15- 53.4- 48.2---
1216 9:36 am E 1.9 4.1----30.15- 53.4- 48.2---
1216 9:34 am E 4.1 5.1----30.15- 53.2- 48.0---
1216 9:32 am E 4.1 5.1----30.14- 53.2- 48.0---
1216 9:30 am E 2.9 5.1----30.14- 53.2- 48.0---
1216 9:28 am E 4.1 5.1----30.14- 53.2- 48.2---
1216 9:26 am E 2.9 4.1----30.14- 52.9- 48.0---
1216 9:24 am E 1.9 2.9----30.15- 52.7- 48.0---
1216 9:22 am- 0.0 1.9----30.16- 52.7- 48.2---
1216 9:20 am W 1.0 4.1----30.16- 52.7- 48.2---
1216 9:18 amWNW 2.9 5.1----30.16- 52.7- 48.2---
1216 9:16 am NW 2.9 4.1----30.17- 52.7- 48.2---
1216 9:14 amWNW 4.1 6.0----30.17- 52.7- 48.0---
1216 9:12 amWNW 5.1 7.0----30.17- 52.7- 48.2---
1216 9:10 amWNW 7.0 9.9----30.18- 52.9- 48.2---
1216 9:08 amWNW 9.9 12.0----30.18- 52.9- 48.2---
1216 9:06 amWNW 9.9 12.0----30.18- 53.2- 48.4---
1216 9:04 am W 7.0 9.9----30.18- 53.6- 48.9---
1216 9:02 amWSW 7.0 8.9----30.18- 53.2- 48.7---
1216 9:00 amWSW 8.0 9.9----30.18- 52.3- 48.7---
1216 8:58 amWSW 8.9 9.9----30.18- 51.6- 48.7---
1216 8:56 am SW 8.9 9.9----30.17- 51.4- 49.1---
1216 8:54 amWSW 7.0 8.9----30.16- 50.9- 48.7---
1216 8:52 amWSW 7.0 8.9----30.16- 50.5- 48.6---
1216 8:50 amWSW 6.0 7.0----30.16+0.00 50.2- 48.4---
1216 8:48 amWSW 5.1 7.0----30.16- 49.8- 48.0---
1216 8:46 amWSW 5.1 6.0----30.16- 49.6- 48.0---
1216 8:44 amWSW 5.1 7.0----30.16- 49.6- 48.2---
1216 8:42 am W 4.1 5.1----30.16- 49.8- 48.4---
1216 8:40 amWSW 4.1 5.1----30.15- 49.6- 48.0---
1216 8:38 am SW 4.1 5.1----30.14- 49.6- 48.2---
1216 8:36 am SW 4.1 5.1----30.14- 49.5- 48.0---
1216 8:34 am SW 2.9 5.1----30.14- 49.6- 48.2---
1216 8:32 amWSW 2.9 4.1----30.14- 49.6- 48.2---
1216 8:30 am W 2.9 4.1----30.14- 49.6- 48.2---
1216 8:28 amWSW 1.9 2.9----30.14- 49.6- 48.2---
1216 8:26 am W 1.0 1.9----30.14- 49.5- 48.0---
1216 8:24 am- 0.0 1.9----30.14- 49.6- 48.4---
1216 8:22 am- 0.0 1.0----30.14- 49.6- 48.4---
1216 8:20 am- 0.0 1.0----30.14- 49.6- 48.4---
1216 8:18 am- 0.0 1.0----30.14- 49.6- 48.4---
1216 8:16 am- 0.0 1.9----30.14- 49.3- 48.0---
1216 8:14 am W 1.9 1.9----30.14- 48.9- 47.7---
1216 8:12 amWNW 1.9 1.9----30.14- 48.6- 47.3---
1216 8:10 amWNW 1.0 1.9----30.14- 48.4- 47.1---
1216 8:08 am- 0.0 1.9----30.14- 48.2- 46.9---
1216 8:06 am- 0.0 1.9----30.14- 48.0- 46.8---
1216 8:04 am N 1.9 1.9----30.14- 47.8- 46.6---
1216 8:02 am N 2.9 4.1----30.13- 47.7- 46.4---
1216 8:00 am N 4.1 5.1----30.13- 47.5- 46.2---
1216 7:58 amNNE 4.1 5.1----30.12- 47.5- 46.2---
1216 7:56 amNNE 2.9 4.1----30.12- 47.5- 46.2---
1216 7:54 am NE 4.1 5.1----30.12- 47.5- 46.2---
1216 7:52 am NE 4.1 5.1----30.12- 47.7- 46.4---
1216 7:50 amNNE 4.1 5.1----30.12- 48.0- 46.8---
1216 7:48 am N 4.1 4.1----30.13-0.01 48.0- 46.8---
1216 7:46 am N 4.1 5.1----30.14- 47.7- 46.4---
1216 7:44 am N 5.1 7.0----30.13- 47.7- 46.2---
1216 7:42 am N 5.1 7.0----30.12- 47.5- 46.2---
1216 7:40 am N 5.1 7.0----30.12- 47.5- 46.2---
1216 7:38 am N 5.1 8.0----30.12- 47.5- 46.2---
1216 7:36 amNNE 5.1 7.0----30.12- 47.7- 46.4---
1216 7:34 amNNE 5.1 7.0----30.12- 47.3- 46.0---
1216 7:32 amNNE 5.1 7.0----30.12- 47.5- 46.0---
1216 7:30 amNNE 5.1 7.0----30.13- 47.3- 45.7---
1216 7:28 amNNE 6.0 7.0----30.13- 47.1- 45.5---
1216 7:26 amNNE 6.0 7.0----30.13- 47.3- 45.7---
1216 7:24 amNNE 6.0 7.0----30.13- 47.5- 46.0---
1216 7:22 amNNE 5.1 7.0----30.14- 47.3- 46.0---
1216 7:20 am NE 6.0 7.0----30.14- 47.5- 46.2---
1216 7:18 amNNE 5.1 7.0----30.14- 47.3- 46.0---
1216 7:16 am N 5.1 6.0----30.14- 47.3- 46.0---
1216 7:14 am N 5.1 6.0----30.14- 47.3- 45.9---
1216 7:12 amNNE 6.0 7.0----30.14- 46.8- 45.1---
1216 7:10 am N 5.1 7.0----30.14- 46.8- 45.1---
1216 7:08 amNNE 6.0 8.0----30.14- 46.8- 45.1---
1216 7:06 am N 7.0 8.0----30.14- 46.8- 45.1---
1216 7:04 am N 6.0 8.0----30.14- 47.1- 45.5---
1216 7:02 amNNE 7.0 8.0----30.14- 46.9- 45.3---
1216 7:00 amNNE 7.0 8.0----30.14- 46.9- 45.3---
1216 6:58 amNNE 7.0 8.0----30.14- 47.3- 45.9---
1216 6:56 amNNE 6.0 7.0----30.14- 47.5- 46.0---
1216 6:54 amNNE 6.0 7.0----30.14- 47.7- 46.2---
1216 6:52 amNNE 6.0 7.0----30.14- 47.7- 46.2---
1216 6:50 amNNE 6.0 7.0----30.14- 47.8- 46.4---

Solar Radiation Conditions at CPXC1 as of
(7:02 am PST)
1502 GMT on 12/17/2018:
     

Click on the graph icon in the table below to see a time series plot of the last five days of that observation.

5-day plot - Short Wave Radiation 1Short Wave Radiation 1 (SRAD1): 5.1watts/meter2
Previous observations
5-day plot - Short Wave Radiation 1 5-day plot - Short Wave Radiation 2 5-day plot - Long Wave Radiation
MM   DD    TIME
(PST)
  SRAD1
w/m2
   SWRAD
w/m2
    LWRAD
w/m2
12176:52 am 5.1--
12176:42 am 5.1--
12176:32 am 5.1--
12176:22 am 5.1--
12176:12 am 5.1--
12176:02 am 5.1--
12175:52 am 5.1--
12175:40 am 5.1--
12175:30 am 5.1--
12175:20 am 5.1--
12175:10 am 5.1--
12175:00 am 5.1--
12174:50 am 5.1--
12174:40 am 5.1--
12174:30 am 5.1--
12174:20 am 5.1--
12174:10 am 5.1--
12174:00 am 9.8--
12173:50 am 9.8--
12173:38 am 5.1--
12173:28 am 5.1--
12173:18 am 5.1--
12173:08 am 5.1--
12172:58 am 5.1--
12172:48 am 5.1--
12172:38 am 9.8--
12172:28 am 9.8--
12172:18 am 9.8--
12172:08 am 5.1--
12171:58 am 5.1--
12171:48 am 5.1--
12171:36 am 5.1--
12171:26 am 5.1--
12171:16 am 5.1--
12171:06 am 5.1--
121712:56 am 5.1--
121712:46 am 5.1--
121712:36 am 9.8--
121712:26 am 5.1--
121712:16 am 5.1--
121712:06 am 5.1--
121611:56 pm 5.1--
121611:46 pm 5.1--
121611:34 pm 5.1--
121611:24 pm 5.1--
121611:14 pm 5.1--
121611:04 pm 5.1--
121610:54 pm 5.1--
121610:44 pm 5.1--
121610:34 pm 5.1--
121610:24 pm 5.1--
121610:14 pm 5.1--
121610:04 pm 0.4--
12169:54 pm 0.4--
12169:44 pm 5.1--
12169:32 pm 5.1--
12169:22 pm 0.4--
12169:02 pm 5.1--
12168:52 pm 5.1--
12168:42 pm 5.1--
12168:32 pm 5.1--
12168:22 pm 5.1--
12168:12 pm 5.1--
12168:02 pm 5.1--
12167:52 pm 5.1--
12167:42 pm 5.1--
12167:30 pm 9.8--
12167:20 pm 9.8--
12167:10 pm 5.1--
12167:00 pm 5.1--
12166:50 pm 5.1--
12166:40 pm 5.1--
12166:30 pm 9.8--
12166:20 pm 5.1--
12166:10 pm 5.1--
12166:00 pm 5.1--
12165:50 pm 5.1--
12165:38 pm 5.1--
12165:28 pm 5.1--
12165:18 pm 5.1--
12165:08 pm 5.1--
12164:58 pm 5.1--
12164:48 pm 9.8--
12164:38 pm 9.8--
12164:28 pm 19.2--
12164:18 pm 33.3--
12164:08 pm 38.0--
12163:58 pm 42.7--
12163:48 pm 89.7--
12163:36 pm 89.7--
12163:26 pm 122.6--
12163:16 pm 108.5--
12163:06 pm 240.2--
12162:56 pm 291.9--
12162:46 pm 212.0--
12162:36 pm 381.2--
12162:26 pm 310.7--
12162:16 pm 329.5--
12162:06 pm 244.9--
12161:56 pm 508.1--
12161:46 pm 555.1--
12161:34 pm 216.7--
12161:24 pm 536.3--
12161:14 pm 498.7--
12161:04 pm 597.4--
121612:54 pm 611.5--
121612:44 pm 635.1--
121612:34 pm 639.8--
121612:24 pm 649.2--
121612:14 pm 653.9--
121612:04 pm 630.4--
121611:52 am 531.6--
121611:42 am 573.9--
121611:32 am 536.3--
121611:22 am 578.6--
121611:12 am 432.9--
121611:02 am 498.7--
121610:52 am 569.2--
121610:42 am 597.4--
121610:32 am 541.0--
121610:22 am 461.1--
121610:12 am 465.8--
121610:02 am 357.7--
12169:50 am 357.7--
12169:40 am 428.2--
12169:30 am 249.6--
12169:20 am 141.4--
12169:10 am 212.0--
12169:00 am 348.3--
12168:50 am 165.0--
12168:40 am 197.9--
12168:30 am 183.8--
12168:20 am 183.8--
12168:10 am 155.6--
12167:58 am 103.8--
12167:48 am 108.5--
12167:38 am 38.0--
12167:28 am 33.3--
12167:18 am 28.6--
12167:08 am 5.1--
12166:58 am 5.1--

Description of Measurements

Links which are specific to this station are listed below:

Real Time Data in tabular form for the last forty-five days.

Historical Data & Climatic Summaries for quality controlled data for the current month, previous months, and previous years.